Home > Weather > Arequipa > Past weeks

Flag for Peru Past Weather in Arequipa, Arequipa, Peru — Yesterday and Last 2 Weeks

Now
63 °F

Sunny.


Feels Like: 63 °F
Forecast: N/A
Wind: 7 mph from West

Location: Arequipa Airport

Current Time: May 27, 2016 at 5:14:41 PM

Latest Report: May 27, 2016 at 5:00 PM


Visibility: 10 mi

Pressure: 30.30 "Hg (22.99 "Hg at 2345m altitude)

Humidity: 27%

Dew Point: 28 °F

Location of ArequipaLocation

Past Weather in Arequipa — Graph

°F

Arequipa Temperature Yesterday

Maximum temperature yesterday: 73 °F (at 11:00 AM)
Minimum temperature yesterday: 50 °F (at 2:00 AM)
Average temperature yesterday: 60 °F

High & Low Weather Summary for the Past Weeks

 TemperatureHumidityPressure
High77 °F (May 16, 11:00 AM)63% (May 18, 7:00 PM)30.45 "Hg (May 18, 7:00 PM)
Low46 °F (May 18, 3:00 AM)6% (May 20, 9:00 AM)30.27 "Hg (May 18, 3:00 PM)
Average61 °F20%30.35 "Hg
* Reported May 12 4:00 PM — May 27 4:00 PM, Arequipa, Weather by CustomWeather, © 2016

Note: Actual official high and low records may vary slightly from our data, if they occured in-between our weather recording intervals... More about our weather records

Advertising

Arequipa Weather History for the Previous 24 Hours

Scroll right to see more
 ConditionsComfort  
Time TempWeatherWind HumidityBarometerVisibility
4:00 PM
Fri, May 27
66 °FPassing clouds.10 mph17%30.27 "HgN/A
3:00 PM68 °FPassing clouds.10 mph14%30.27 "HgN/A
2:00 PM70 °FPassing clouds.9 mph13%30.27 "HgN/A
1:00 PM70 °FPassing clouds.10 mph12%30.30 "HgN/A
12:00 PM70 °FSunny.8 mph12%30.30 "Hg10 mi
11:00 AM70 °FPassing clouds.9 mph11%30.33 "HgN/A
10:00 AM68 °FPassing clouds.9 mph10%30.33 "HgN/A
9:00 AM68 °FSunny.3 mph10%30.33 "Hg10 mi
8:00 AM63 °FSunny.14 mph12%30.33 "Hg10 mi
7:00 AM54 °FSunny.13 mph16%30.30 "Hg10 mi
6:00 AM50 °FClear.15 mph20%30.27 "Hg10 mi
5:00 AM52 °FClear.13 mph19%30.27 "Hg10 mi
4:00 AM52 °FClear.15 mph19%30.27 "Hg10 mi
3:00 AM50 °FClear.12 mph20%30.27 "Hg10 mi
2:00 AM52 °FClear.15 mph19%30.30 "Hg10 mi
1:00 AM54 °FClear.13 mph18%30.33 "Hg10 mi
12:00 AM52 °FClear.7 mph20%30.33 "Hg10 mi
11:00 PM
Thu, May 26
52 °FClear.9 mph20%30.33 "Hg10 mi
10:00 PM52 °FClear.6 mph22%30.36 "Hg10 mi
9:00 PM57 °FPassing clouds.6 mph18%30.36 "HgN/A
8:00 PM57 °FPassing clouds.6 mph17%30.33 "HgN/A
7:00 PM59 °FClear.6 mph18%30.33 "Hg10 mi
6:00 PM61 °FClear.1 mph22%30.30 "Hg10 mi
5:00 PM66 °FSunny.2 mph17%30.30 "Hg10 mi
Weather by CustomWeather, © 2016

See weather overviewHow to use our weather pages